Location: Laterina
(43.5167°N, 11.7167°E)
Time: 16:25:48
(UTC+00:00)

Okean 1 Rocket - Pass Details

Date: 24 September 2020
Orbit: 606 x 635 km, 82.5° (Epoch: 20 October)

Event Time Altitude Azimuth Distance (km) Brightness Sun altitude
Rises 18:15:23 0° 168° (SSE) 2,915 6.3 -13.3°
Reaches altitude 10° 18:17:42 10° 162° (SSE) 2,014 5.4 -13.7°
Maximum altitude 18:21:53 41° 92° (E) 926 3.5 -14.4°
Drops below altitude 10° 18:26:07 10° 23° (NNE) 2,030 5.6 -15.2°
Sets 18:28:27 0° 16° (NNE) 2,941 6.5 -15.6°
